Location: Caltech
(34.1382°N, 118.1253°W)
Time: 19:10:07
(UTC-07:00)

Uosat F - Visible Passes

Search period start: 02 September 2014 00:00
Search period end: 12 September 2014 00:00
Orbit: 751 x 763 km, 98.7° (Epoch: 01 September)

Date Brightness Start Highest point End Pass type
(mag) Time Alt. Az. Time Alt. Az. Time Alt. Az.
02 Sep 13.8 04:03:26 10° ENE 04:06:06 14° E 04:08:44 10° SE visible
02 Sep 11.3 05:40:16 10° N 05:45:07 52° WNW 05:49:57 10° SSW visible
03 Sep 11.5 05:01:07 10° NNE 05:06:04 61° ESE 05:11:01 10° S visible
04 Sep 13.2 04:22:50 10° NE 04:26:49 24° E 04:30:47 10° SSE visible
04 Sep 11.9 06:01:10 10° N 06:05:35 32° WNW 06:09:59 10° SW visible
05 Sep 11.0 05:21:37 10° N 05:26:38 82° WNW 05:31:39 10° SSW visible
06 Sep 12.4 04:42:50 10° NNE 04:47:30 38° E 04:52:08 10° SSE visible
07 Sep 13.8 04:05:21 10° ENE 04:08:09 15° E 04:10:56 10° SE visible
07 Sep 11.3 05:42:19 10° N 05:47:09 50° WNW 05:51:58 10° SSW visible
08 Sep 11.5 05:03:08 10° NNE 05:08:07 64° ESE 05:13:04 10° S visible
09 Sep 13.2 04:24:48 10° NE 04:28:52 24° E 04:32:54 10° SSE visible
09 Sep 11.9 06:03:14 10° N 06:07:36 31° WNW 06:11:58 10° SW visible
10 Sep 11.0 05:23:39 10° N 05:28:40 79° WNW 05:33:41 10° SSW visible
11 Sep 12.3 04:44:50 10° NNE 04:49:32 40° E 04:54:13 10° SSE visible
